Location: Bli��� Lhota
(48.7570°N, 14.0120°E)
Time: 05:24:49
(UTC+00:00)

Cosmos 1805 - Pass Details

Date: 18 September 2020
Orbit: 524 x 531 km, 82.5° (Epoch: 22 October)

Event Time Altitude Azimuth Distance (km) Brightness Sun altitude
Exits shadow 19:00:07 34° 66° (ENE) 900 4.0 -18.4°
Drops below altitude 10° 19:03:00 10° 25° (NNE) 1,793 5.9 -18.9°
Sets 19:05:16 0° 17° (NNE) 2,689 7.0 -19.2°
